Regional Weather Roundup
Issued by NWS Green Bay, WI

Home | Current Version | Previous Version | Graphics & Text | Print | Product List | Glossary Off
Versions: 1 2 3 4 5 6 7 8 9 10 11 12 13 14 15 16 17 18 19 20 21 22 23 24 25 26 27 28 29 30 31 32 33 34 35 36 37 38 39 40 41 42 43 44 45 46 47 48 49 50

000
ASUS43 KGRB 191110
RWRGRB

NORTH-CENTRAL AND NORTHEAST WISCONSIN REGIONAL WEATHER ROUNDUP
NATIONAL WEATHER SERVICE GREEN BAY WI
600 AM CDT SAT APR 19 2014

WIZ005-009-010>012-018-019-191200-
NORTH CENTRAL WISCONSIN

CITY           SKY/WX    TMP DP  RH WIND       PRES   REMARKS
IRONWOOD       CLOUDY    34  23  64 SE9G18    30.26F
MANITOWISH WTR CLOUDY    30  24  77 SE9G18    30.31F
ARBOR VITAE    CLOUDY    32  25  75 SE9       30.34S
EAGLE RIVER    CLOUDY    29  23  77 SE8       30.35F
LAND O LAKES   CLOUDY    30  25  81 SE7       30.36F
RHINELANDER    MOCLDY    29  23  78 SE12      30.35F
PHILLIPS       MOCLDY    32  25  74 SE12G17   30.32S
ANTIGO         MOCLDY    28  25  89 E8        30.38F
TOMAHAWK       PTCLDY    30  24  78 CALM      30.36S
MERRILL        PTCLDY    31  26  79 CALM      30.37S
$$

WIZ013-073-191200-
NORTHEAST WISCONSIN

CITY           SKY/WX    TMP DP  RH WIND       PRES   REMARKS
IRON MOUNTAIN  CLOUDY    28  24  85 SE3       30.42S
MARINETTE      MOCLDY    28  25  86 NE5       30.45F
OCONTO         PTCLDY    29  27  93 NE3       30.44F
$$

WIZ017-030-035>037-045-191200-
CENTRAL WISCONSIN

CITY           SKY/WX    TMP DP  RH WIND       PRES   REMARKS
MEDFORD        PTCLDY    32  25  74 SE8       30.34R
WAUSAU         CLEAR     31  25  78 SE10      30.36S
MOSINEE        CLEAR     30  27  86 E10       30.38S
MARSHFIELD     PTCLDY    33  26  75 SE13      30.35S
WISC RAPIDS    PTCLDY    31  26  82 E6        30.38S
STEVENS POINT  PTCLDY    30  25  82 E9        30.38S
WAUPACA        CLEAR     34  27  75 E8        30.41S
SHAWANO        PTCLDY    30  27  88 NE3       30.43S
CLINTONVILLE   PTCLDY    30  28  93 E5        30.42S
$$

WIZ038-039-048-051-191200-
FOX VALLEY

CITY           SKY/WX    TMP DP  RH WIND       PRES   REMARKS
NWS GREEN BAY  CLEAR     32  28  85 E6        30.43F
APPLETON       PTCLDY    32  27  80 E7        30.42R
OSHKOSH        CLEAR     33  26  75 E9        30.40S
FOND DU LAC    CLEAR     33  25  72 E10       30.40F
$$

WIZ022-050-052-191200-
EAST CENTRAL WISCONSIN

CITY           SKY/WX    TMP DP  RH WIND       PRES   REMARKS
STURGEON BAY   PTCLDY    30  27  86 E6        30.45F
MANITOWOC      CLEAR     31  29  92 E7        30.44F
SHEBOYGAN      CLEAR     31  27  85 E6        30.43S
$$

LMZ563-521-522-541>543-191200-
LAKESHORE

STATION/POSITION TIME  TEMP    WIND        PRES    VSBY  WAVE
                       AIR SEA DIR/SP/G                  HT/PER
                 (UTC) (F)     (DEG/KT/KT) (MB)    (MI)  (FT/S)
SHEBOYGAN LKSHOR 1100   35      80/ 11/ 13 1031.4F
KEWAUNEE LKSHORE 1100   33      90/  7/ 10 1031.5F
NORTHPORT PIER   1100   32     100/  5/  7 1031.5S
SISTER BAY LKSHO 1100   31        CALM       N/A
MENOMINEE LKSHOR 1100   27      20/  7/  7 1031.8S
$$



USA.gov is the U.S. government's official web portal to all federal, state and local government web resources and services.